EW1257 Weather Reports


Display with metric or nautical units.
time (UTC)temp
F
wind
direction
speed
MPH
gust
MPH
rain 1hr
in
rain 24hr
in
rain mn
in
humidity
%
barometer
mb
20190324104439 41 135 6.0 7.0 0.00 0.00 0.00 53 1024.0
20190324103939 41 157 2.0 7.0 0.00 0.00 0.00 53 1024.0
20190324103439 41 135 3.0 6.0 0.00 0.00 0.00 53 1024.0
20190324094439 39 180 0.0 3.0 0.00 0.00 0.00 60 1025.1
20190324093939 39 180 0.0 0.0 0.00 0.00 0.00 54 1025.1
20190324092439 40 180 0.0 3.0 0.00 0.00 0.00 54 1025.1
20190324091939 40 180 0.0 0.0 0.00 0.00 0.00 56 1025.1
20190324090439 41 180 0.0 4.0 0.00 0.00 0.00 51 1024.7
20190324085439 42 180 0.0 6.0 0.00 0.00 0.00 50 1025.1
20190324084439 42 180 1.0 5.0 0.00 0.00 0.00 50 1025.1
20190324082439 42 157 2.0 7.0 0.00 0.00 0.00 49 1024.7
20190324081939 42 157 5.0 7.0 0.00 0.00 0.00 48 1024.4
20190324080439 42 135 5.0 7.0 0.00 0.00 0.00 48 1024.4
20190324074439 41 157 3.0 6.0 0.00 0.00 0.00 49 1025.1
20190324073939 41 157 4.0 6.0 0.00 0.00 0.00 50 1025.1
20190324072939 41 157 3.0 6.0 0.00 0.00 0.00 50 1025.1
20190324071439 41 135 3.0 6.0 0.00 0.00 0.00 49 1024.7
20190324070939 41 135 4.0 6.0 0.00 0.00 0.00 49 1025.1
20190324065439 41 135 4.0 6.0 0.00 0.00 0.00 48 1025.1
20190324063439 41 135 3.0 6.0 0.00 0.00 0.00 47 1025.1
20190324062939 41 135 4.0 6.0 0.00 0.00 0.00 47 1025.1
20190324061939 41 157 5.0 7.0 0.00 0.00 0.00 48 1025.1
20190324060938 41 157 4.0 6.0 0.00 0.00 0.00 47 1025.4
20190324060438 41 157 3.0 6.0 0.00 0.00 0.00 47 1025.4
20190324055939 41 157 2.0 6.0 0.00 0.00 0.00 48 1025.4
20190324054939 41 157 3.0 6.0 0.00 0.00 0.00 48 1025.4
20190324052439 41 135 3.0 6.0 0.00 0.00 0.00 47 1025.4
20190324040938 42 135 3.0 6.0 0.00 0.00 0.00 45 1025.7
20190324035939 41 135 2.0 5.0 0.00 0.00 0.00 45 1025.7
20190324033938 41 157 3.0 4.0 0.00 0.00 0.00 43 1026.1
20190324032938 41 157 1.0 3.0 0.00 0.00 0.00 44 1026.4
20190324031438 41 157 0.0 2.0 0.00 0.00 0.00 40 1026.1
20190324024438 42 157 2.0 4.0 0.00 0.00 0.00 38 1026.1
20190324022938 42 157 2.0 3.0 0.00 0.00 0.00 37 1026.4
20190324021438 42 157 2.0 4.0 0.00 0.00 0.00 36 1026.4
20190324020438 42 157 3.0 4.0 0.00 0.00 0.00 37 1026.1
20190324015438 42 157 4.0 5.0 0.00 0.00 0.00 38 1026.4
20190324014938 42 157 3.0 4.0 0.00 0.00 0.00 38 1026.4
20190324012438 43 202 0.0 2.0 0.00 0.00 0.00 37 1026.4
20190324010938 42 202 2.0 2.0 0.00 0.00 0.00 39 1026.4
20190324004938 42 202 2.0 3.0 0.00 0.00 0.00 39 1026.4
20190324004438 43 202 1.0 2.0 0.00 0.00 0.00 39 1026.4
20190324001938 44 202 2.0 2.0 0.00 0.00 0.00 38 1026.4
20190324000938 45 202 2.0 2.0 0.00 0.00 0.00 37 1026.4
20190323235438 47 202 0.0 0.0 0.00 0.00 0.00 31 1026.4
20190323234938 49 202 0.0 0.0 0.00 0.00 0.00 32 1026.4
20190323233938 51 202 0.0 0.0 0.00 0.00 0.00 31 1026.1
20190323232938 54 202 0.0 0.0 0.00 0.00 0.00 29 1026.1
20190323232438 54 202 0.0 0.0 0.00 0.00 0.00 30 1026.1
20190323230438 55 157 0.0 6.0 0.00 0.00 0.00 29 1026.1
20190323224938 56 270 6.0 7.0 0.00 0.00 0.00 23 1025.7
20190323222438 58 157 7.0 7.0 0.00 0.00 0.00 27 1025.7
20190323220938 57 225 1.0 7.0 0.00 0.00 0.00 28 1025.7
20190323215438 56 180 6.0 7.0 0.00 0.00 0.00 29 1026.1
20190323214438 56 112 1.0 8.0 0.00 0.00 0.00 29 1025.7
20190323212438 56 112 3.0 6.0 0.00 0.00 0.00 26 1025.7
20190323211438 56 247 0.0 7.0 0.00 0.00 0.00 33 1026.1
20190323210938 56 225 4.0 7.0 0.00 0.00 0.00 31 1026.4
20190323205938 55 90 0.0 9.0 0.00 0.00 0.00 27 1026.4
20190323205438 55 180 6.0 6.0 0.00 0.00 0.00 29 1026.4
20190323203937 53 292 8.0 9.0 0.00 0.00 0.00 31 1026.4
20190323202438 54 270 6.0 9.0 0.00 0.00 0.00 30 1026.8
20190323201438 52 180 9.0 9.0 0.00 0.00 0.00 32 1027.1
20190323200437 52 225 9.0 12.0 0.00 0.00 0.00 31 1026.8
20190323195438 52 270 4.0 12.0 0.00 0.00 0.00 33 1026.8
20190323194937 53 202 6.0 12.0 0.00 0.00 0.00 32 1026.8
20190323193938 53 270 4.0 7.0 0.00 0.00 0.00 33 1026.8
20190323193438 53 225 6.0 6.0 0.00 0.00 0.00 33 1026.8
20190323191937 52 247 7.0 8.0 0.00 0.00 0.00 38 1027.1
20190323185937 51 247 2.0 14.0 0.00 0.00 0.00 37 1027.1
20190323185437 51 225 3.0 14.0 0.00 0.00 0.00 36 1027.1
20190323184437 51 22 0.0 6.0 0.00 0.00 0.00 33 1027.8
20190323182937 51 247 6.0 9.0 0.00 0.00 0.00 33 1027.8
20190323180937 49 360 2.0 8.0 0.00 0.00 0.00 37 1028.1
20190323174937 48 247 3.0 12.0 0.00 0.00 0.00 41 1028.4
20190323174437 47 225 3.0 12.0 0.00 0.00 0.00 43 1028.4
20190323173937 47 292 2.0 9.0 0.00 0.00 0.00 42 1028.8
20190323172437 46 247 6.0 11.0 0.00 0.00 0.00 41 1028.8
20190323170937 46 135 4.0 9.0 0.00 0.00 0.00 43 1029.1
20190323165937 46 315 3.0 7.0 0.00 0.00 0.00 43 1029.1
20190323164437 45 315 3.0 8.0 0.00 0.00 0.00 40 1029.1
20190323162437 45 270 3.0 8.0 0.00 0.00 0.00 49 1029.5
20190323161937 44 337 7.0 8.0 0.00 0.00 0.00 53 1029.8
20190323160937 44 180 5.0 7.0 0.00 0.00 0.00 55 1029.8
20190323155437 43 315 1.0 9.0 0.00 0.00 0.00 59 1029.8
20190323153937 44 225 0.0 6.0 0.00 0.00 0.00 62 1030.1
20190323152437 42 270 2.0 6.0 0.00 0.00 0.00 62 1029.8
20190323151937 42 180 2.0 6.0 0.00 0.00 0.00 57 1029.8
20190323151437 41 157 1.0 6.0 0.00 0.00 0.00 65 1029.8
20190323150937 41 180 0.0 6.0 0.00 0.00 0.00 65 1029.8
20190323145437 40 247 4.0 6.0 0.00 0.00 0.00 69 1029.8
20190323143437 37 292 1.0 6.0 0.00 0.00 0.00 81 1029.8
20190323142937 37 292 1.0 6.0 0.00 0.00 0.00 80 1029.8
20190323140937 36 360 3.0 6.0 0.00 0.00 0.00 92 1029.8
20190323135437 33 337 3.0 5.0 0.00 0.00 0.00 95 1029.5
20190323133437 32 360 2.0 6.0 0.00 0.00 0.00 95 1029.1
20190323132437 31 360 3.0 7.0 0.00 0.00 0.00 95 1029.5
20190323131937 30 360 3.0 8.0 0.00 0.00 0.00 95 1029.1
20190323131437 30 337 6.0 8.0 0.00 0.00 0.00 95 1029.1
20190323125937 29 360 3.0 7.0 0.00 0.00 0.00 94 1028.8
20190323123937 25 337 3.0 6.0 0.00 0.00 0.00 94 1028.4
20190323123437 24 337 4.0 5.0 0.00 0.00 0.00 94 1028.4
20190323122437 24 247 0.0 4.0 0.00 0.00 0.00 94 1028.4
20190323121437 23 225 0.0 2.0 0.00 0.00 0.00 93 1028.4
20190323115937 23 225 1.0 2.0 0.00 0.00 0.00 93 1027.8
20190323114937 23 225 1.0 4.0 0.00 0.00 0.00 93 1027.8
20190323111936 23 292 2.0 3.0 0.00 0.00 0.00 93 1027.8
20190323111437 22 292 2.0 2.0 0.00 0.00 0.00 93 1027.8
20190323110936 22 292 0.0 1.0 0.00 0.00 0.00 93 1027.4
20190323110437 21 292 0.0 0.0 0.00 0.00 0.00 93 1027.4
20190323105937 21 292 0.0 0.0 0.00 0.00 0.00 93 1027.4